Location: ?????
(55.8833°N, 37.6500°E)
Time: 19:35:35
(UTC+00:00)

NOSS 3-1 (A) - Pass Details

Date: 27 February 2020
Orbit: 761 x 1452 km, 63.4° (Epoch: 26 March)

Event Time Altitude Azimuth Distance (km) Brightness Sun altitude
Rises 15:38:57 0° 212° (SSW) 3,334 6.9 -6.5°
Reaches altitude 10° 15:41:16 10° 209° (SSW) 2,464 6.1 -6.8°
Maximum altitude 15:46:50 60° 131° (SE) 1,068 3.5 -7.6°
Drops below altitude 10° 15:53:25 10° 53° (NE) 2,896 5.5 -8.5°
Enters shadow 15:55:32 - 51° (NE) 3,670 6.0 -8.8°
